EAG5512 UEEE-ZBAD

Flight info

Callsign EAG5512
Flight time 3h 19m
Altitude 40000
Route DENIB6E DENIB DCT ABDAD M172 BEDNA A906 UTOGA/K0896S1220 DCT VADGI DCT 45N119E DCT VALVA/K0895S1250 W52 MUDAM/K0891S1220 G212 BUMDU BUMDU5L
Aircraft MD11/H-SDE1E2E3FGHIJ2J3J4J5M1RWXY/LB1D1

Departure

Time 2026-04-22 20:48
Airport Platon Oyunsky Yakutsk International Airport (UEEE)

Arrival

Time 2026-04-23 00:08
Airport Beijing Daxing International Airport (ZBAD)
Time Latitude Longitude Altitude Speed Heading
2026-04-22 20:27 62.08945 129.75678 333 ft 0 kts 299°
2026-04-22 20:43 62.08949 129.75664 334 ft 5 kts 300°
2026-04-22 20:43 62.08978 129.75614 335 ft 7 kts 334°
2026-04-22 20:44 62.08997 129.75595 339 ft 0 kts 329°
2026-04-22 20:44 62.08998 129.75582 334 ft 2 kts 297°
2026-04-22 20:44 62.08992 129.75562 334 ft 1 kts 234°
2026-04-22 20:44 62.08958 129.75534 335 ft 15 kts 205°
2026-04-22 20:45 62.08840 129.75396 337 ft 17 kts 210°
2026-04-22 20:45 62.08751 129.75341 337 ft 3 kts 155°
2026-04-22 20:45 62.08737 129.75379 334 ft 7 kts 126°
2026-04-22 20:45 62.08701 129.75433 334 ft 7 kts 180°
2026-04-22 20:46 62.08538 129.75266 335 ft 17 kts 209°
2026-04-22 20:46 62.08434 129.75142 336 ft 18 kts 209°
2026-04-22 20:46 62.08359 129.75128 338 ft 8 kts 152°
2026-04-22 20:47 62.08315 129.75246 333 ft 13 kts 121°
2026-04-22 20:47 62.08260 129.75451 336 ft 19 kts 120°
2026-04-22 20:47 62.08214 129.75687 337 ft 13 kts 84°
2026-04-22 20:47 62.08252 129.75783 336 ft 9 kts 31°
2026-04-22 20:48 62.08399 129.76009 349 ft 70 kts 37°
2026-04-22 20:48 62.09118 129.77159 359 ft 180 kts 37°
2026-04-22 20:48 62.10166 129.78829 1457 ft 183 kts 36°
2026-04-22 20:48 62.11118 129.80323 3180 ft 161 kts 36°
2026-04-22 20:49 62.12050 129.81820 4185 ft 185 kts 36°
2026-04-22 20:49 62.13195 129.83653 4527 ft 222 kts 38°
2026-04-22 20:49 62.14445 129.85670 5678 ft 226 kts 38°
2026-04-22 20:49 62.15723 129.87733 6853 ft 234 kts 39°
2026-04-22 20:50 62.17045 129.89869 7956 ft 243 kts 40°
2026-04-22 20:50 62.18402 129.92100 9018 ft 248 kts 43°
2026-04-22 20:50 62.19528 129.94893 10050 ft 248 kts 65°
2026-04-22 20:50 62.19947 129.98443 11079 ft 248 kts 94°
2026-04-22 20:51 62.19470 130.01965 12085 ft 250 kts 120°
2026-04-22 20:51 62.18509 130.05066 13028 ft 256 kts 127°
2026-04-22 20:51 62.17424 130.08124 14064 ft 259 kts 128°
2026-04-22 20:51 62.16312 130.11211 15069 ft 264 kts 128°
2026-04-22 20:52 62.15184 130.14348 16028 ft 267 kts 128°
2026-04-22 20:52 62.14044 130.17528 16950 ft 271 kts 128°
2026-04-22 20:52 62.12814 130.20630 17801 ft 277 kts 136°
2026-04-22 20:52 62.11139 130.23043 17969 ft 308 kts 159°
2026-04-22 20:53 62.08918 130.23647 18115 ft 341 kts 185°
2026-04-22 20:53 62.06566 130.22062 18259 ft 372 kts 205°
2026-04-22 20:53 62.04388 130.18788 18632 ft 391 kts 218°
2026-04-22 20:53 62.02387 130.14909 19346 ft 396 kts 220°
2026-04-22 20:54 62.00363 130.10880 20067 ft 400 kts 220°
2026-04-22 20:54 61.98289 130.06891 20776 ft 403 kts 219°
2026-04-22 20:54 61.96154 130.02958 21462 ft 407 kts 218°
2026-04-22 20:54 61.93970 129.99070 22169 ft 411 kts 218°
2026-04-22 20:55 61.91742 129.95187 22853 ft 415 kts 217°
2026-04-22 20:55 61.89485 129.91300 23548 ft 419 kts 217°
2026-04-22 20:55 61.87205 129.87403 24217 ft 423 kts 217°
2026-04-22 20:55 61.84900 129.83476 24904 ft 427 kts 217°
2026-04-22 20:56 61.82565 129.79505 25563 ft 432 kts 217°
2026-04-22 20:56 61.80240 129.75556 26212 ft 436 kts 217°
2026-04-22 20:56 61.77865 129.71533 26851 ft 441 kts 216°
2026-04-22 20:56 61.75459 129.67467 27450 ft 445 kts 216°
2026-04-22 20:57 61.73028 129.63368 28061 ft 449 kts 216°
2026-04-22 20:57 61.70559 129.59211 28641 ft 454 kts 216°
2026-04-22 20:57 61.68065 129.55081 29202 ft 457 kts 213°
2026-04-22 20:57 61.65339 129.51656 29741 ft 456 kts 201°
2026-04-22 20:58 61.62404 129.49355 30258 ft 456 kts 194°
2026-04-22 20:58 61.59331 129.47597 30719 ft 460 kts 191°
2026-04-22 20:58 61.56203 129.46024 31199 ft 462 kts 191°
2026-04-22 20:58 61.53077 129.44458 31763 ft 462 kts 191°
2026-04-22 20:59 61.49950 129.42826 32328 ft 462 kts 192°
2026-04-22 20:59 61.46836 129.41134 32874 ft 461 kts 192°
2026-04-22 20:59 61.43732 129.39403 33376 ft 461 kts 192°
2026-04-22 20:59 61.40635 129.37652 33865 ft 461 kts 192°
2026-04-22 21:00 61.37535 129.35888 34324 ft 461 kts 192°
2026-04-22 21:00 61.34440 129.34127 34801 ft 460 kts 192°
2026-04-22 21:00 61.31349 129.32375 35265 ft 459 kts 192°
2026-04-22 21:00 61.28265 129.30634 35705 ft 459 kts 193°
2026-04-22 21:01 61.25226 129.28924 36112 ft 458 kts 193°
2026-04-22 21:01 61.22155 129.27201 36512 ft 458 kts 193°
2026-04-22 21:01 61.19082 129.25480 36903 ft 457 kts 193°
2026-04-22 21:01 61.16022 129.23769 37363 ft 454 kts 193°
2026-04-22 21:02 61.12974 129.22067 37792 ft 451 kts 193°
2026-04-22 21:02 61.09955 129.20385 38215 ft 449 kts 193°
2026-04-22 21:02 61.06939 129.18708 38540 ft 449 kts 193°
2026-04-22 21:02 61.03924 129.17037 38836 ft 449 kts 193°
2026-04-22 21:03 61.00905 129.15366 39135 ft 448 kts 193°
2026-04-22 21:03 60.98903 129.14260 39322 ft 448 kts 193°
2026-04-22 21:03 60.95892 129.12602 39569 ft 449 kts 193°
2026-04-22 21:03 60.92867 129.10937 39773 ft 451 kts 193°
2026-04-22 21:04 60.88805 129.08704 40068 ft 452 kts 193°
2026-04-22 21:04 60.86792 129.07600 40121 ft 454 kts 193°
2026-04-22 21:04 60.80630 129.04263 40146 ft 460 kts 193°
2026-04-22 21:05 60.74444 129.00922 40146 ft 463 kts 193°
2026-04-22 21:05 60.68219 128.97551 40147 ft 463 kts 193°
2026-04-22 21:06 60.61986 128.94181 40146 ft 463 kts 193°
2026-04-22 21:06 60.55761 128.90829 40146 ft 463 kts 193°
2026-04-22 21:07 60.49540 128.87494 40147 ft 463 kts 193°
2026-04-22 21:07 60.43308 128.84166 40146 ft 463 kts 193°
2026-04-22 21:08 60.37082 128.80854 40147 ft 462 kts 193°
2026-04-22 21:08 60.30866 128.77561 40139 ft 462 kts 193°
2026-04-22 21:09 60.24672 128.74293 40138 ft 462 kts 193°
2026-04-22 21:09 60.18413 128.71467 40137 ft 460 kts 187°
2026-04-22 21:10 60.12089 128.69634 40137 ft 459 kts 186°
2026-04-22 21:10 60.05758 128.67909 40137 ft 460 kts 187°
2026-04-22 21:11 59.99486 128.65204 40137 ft 461 kts 192°
2026-04-22 21:11 59.93262 128.61992 40137 ft 462 kts 192°
2026-04-22 21:12 59.87067 128.58804 40138 ft 462 kts 192°
2026-04-22 21:12 59.80838 128.55671 40137 ft 461 kts 192°
2026-04-22 21:13 59.74608 128.52572 40138 ft 461 kts 192°
2026-04-22 21:13 59.68376 128.49486 40129 ft 461 kts 192°
2026-04-22 21:14 59.62188 128.46433 40128 ft 461 kts 192°
2026-04-22 21:14 59.55961 128.43371 40129 ft 461 kts 192°
2026-04-22 21:15 59.49728 128.40318 40127 ft 461 kts 192°
2026-04-22 21:15 59.43494 128.37276 40129 ft 462 kts 192°
2026-04-22 21:16 59.37239 128.34254 40128 ft 462 kts 192°
2026-04-22 21:16 59.30998 128.31247 40130 ft 462 kts 192°
2026-04-22 21:17 59.24778 128.28247 40121 ft 463 kts 192°
2026-04-22 21:17 59.18532 128.25240 40118 ft 463 kts 192°
2026-04-22 21:18 59.12274 128.22239 40118 ft 463 kts 192°
2026-04-22 21:18 59.06010 128.19247 40118 ft 463 kts 192°
2026-04-22 21:19 58.99736 128.16261 40120 ft 464 kts 192°
2026-04-22 21:19 58.93502 128.13305 40118 ft 464 kts 191°
2026-04-22 21:20 58.87223 128.10339 40118 ft 465 kts 191°
2026-04-22 21:20 58.80929 128.07378 40110 ft 465 kts 191°
2026-04-22 21:21 58.74638 128.04429 40109 ft 465 kts 191°
2026-04-22 21:21 58.68345 128.01489 40110 ft 465 kts 191°
2026-04-22 21:22 58.62050 127.98561 40110 ft 464 kts 191°
2026-04-22 21:22 58.55778 127.95681 40109 ft 463 kts 191°
2026-04-22 21:23 58.49504 127.92804 40109 ft 464 kts 191°
2026-04-22 21:23 58.43216 127.89916 40101 ft 464 kts 191°
2026-04-22 21:24 58.36978 127.87055 40100 ft 464 kts 191°
2026-04-22 21:24 58.30689 127.84182 40101 ft 465 kts 191°
2026-04-22 21:25 58.24396 127.81317 40100 ft 465 kts 191°
2026-04-22 21:25 58.18092 127.78458 40102 ft 465 kts 191°
2026-04-22 21:26 58.11800 127.75614 40101 ft 465 kts 191°
2026-04-22 21:26 58.05487 127.72773 40092 ft 465 kts 191°
2026-04-22 21:27 57.99189 127.69932 40091 ft 465 kts 191°
2026-04-22 21:27 57.92934 127.67015 40091 ft 466 kts 192°
2026-04-22 21:28 57.86649 127.64047 40092 ft 466 kts 192°
2026-04-22 21:28 57.80364 127.61086 40091 ft 465 kts 192°
2026-04-22 21:29 57.74083 127.58141 40091 ft 465 kts 192°
2026-04-22 21:29 57.67806 127.55211 40082 ft 465 kts 191°
2026-04-22 21:30 57.61569 127.52310 40082 ft 465 kts 192°
2026-04-22 21:30 57.55297 127.49403 40083 ft 464 kts 192°
2026-04-22 21:31 57.49022 127.46505 40082 ft 464 kts 191°
2026-04-22 21:31 57.42757 127.43621 40082 ft 463 kts 191°
2026-04-22 21:32 57.36491 127.40748 40062 ft 463 kts 191°
2026-04-22 21:32 57.30230 127.37888 40082 ft 463 kts 191°
2026-04-22 21:33 57.23966 127.35035 40081 ft 463 kts 191°
2026-04-22 21:33 57.17701 127.32202 40082 ft 463 kts 191°
2026-04-22 21:34 57.11472 127.29413 40082 ft 463 kts 191°
2026-04-22 21:34 57.05213 127.26604 40083 ft 463 kts 191°
2026-04-22 21:35 56.98958 127.23797 40082 ft 462 kts 191°
2026-04-22 21:35 56.92702 127.21001 40068 ft 463 kts 191°
2026-04-22 21:36 56.86437 127.18228 40063 ft 463 kts 191°
2026-04-22 21:36 56.80201 127.15475 40075 ft 463 kts 191°
2026-04-22 21:37 56.73933 127.12713 40076 ft 463 kts 191°
2026-04-22 21:37 56.67663 127.09959 40075 ft 463 kts 191°
2026-04-22 21:38 56.61391 127.07214 40066 ft 463 kts 191°
2026-04-22 21:38 56.55123 127.04479 40077 ft 463 kts 191°
2026-04-22 21:39 56.48889 127.01769 40071 ft 463 kts 191°
2026-04-22 21:39 56.42621 126.99055 40059 ft 464 kts 191°
2026-04-22 21:40 56.36343 126.96327 40059 ft 463 kts 191°
2026-04-22 21:40 56.30071 126.93605 40067 ft 463 kts 191°
2026-04-22 21:41 56.23805 126.90893 40065 ft 463 kts 191°
2026-04-22 21:41 56.17535 126.88189 40065 ft 462 kts 191°
2026-04-22 21:42 56.11268 126.85492 40076 ft 462 kts 191°
2026-04-22 21:42 56.05047 126.82821 40060 ft 462 kts 191°
2026-04-22 21:43 55.98787 126.80143 40062 ft 462 kts 191°
2026-04-22 21:43 55.92515 126.77466 40061 ft 464 kts 191°
2026-04-22 21:44 55.86221 126.74795 40061 ft 465 kts 191°
2026-04-22 21:44 55.79927 126.72127 40066 ft 465 kts 191°
2026-04-22 21:45 55.73642 126.69473 40059 ft 464 kts 191°
2026-04-22 21:45 55.67357 126.66817 40064 ft 464 kts 191°
2026-04-22 21:46 55.61101 126.64206 40065 ft 464 kts 191°
2026-04-22 21:46 55.54810 126.61608 40069 ft 464 kts 191°
2026-04-22 21:47 55.48506 126.59009 40051 ft 464 kts 191°
2026-04-22 21:47 55.42214 126.56412 40057 ft 464 kts 191°
2026-04-22 21:48 55.35916 126.53815 40060 ft 465 kts 191°
2026-04-22 21:48 55.29610 126.51232 40054 ft 465 kts 191°
2026-04-22 21:49 55.23291 126.48668 40052 ft 465 kts 191°
2026-04-22 21:49 55.16976 126.46107 40059 ft 466 kts 191°
2026-04-22 21:50 55.11717 126.43972 40054 ft 467 kts 191°
2026-04-22 21:50 55.04362 126.40994 40051 ft 467 kts 191°
2026-04-22 21:51 54.99050 126.38859 40057 ft 468 kts 191°
2026-04-22 21:52 54.89573 126.35051 40037 ft 468 kts 191°
2026-04-22 21:52 54.83223 126.32498 40049 ft 469 kts 191°
2026-04-22 21:53 54.76852 126.29946 40046 ft 470 kts 191°
2026-04-22 21:53 54.70466 126.27396 40043 ft 470 kts 191°
2026-04-22 21:54 54.64123 126.24863 40043 ft 471 kts 191°
2026-04-22 21:54 54.57717 126.22316 40039 ft 471 kts 191°
2026-04-22 21:55 54.51313 126.19776 40042 ft 472 kts 191°
2026-04-22 21:55 54.44903 126.17246 40047 ft 472 kts 191°
2026-04-22 21:56 54.38488 126.14716 40047 ft 473 kts 191°
2026-04-22 21:56 54.32097 126.12214 40044 ft 473 kts 191°
2026-04-22 21:57 54.25667 126.09705 40048 ft 473 kts 191°
2026-04-22 21:57 54.19234 126.07195 40048 ft 474 kts 191°
2026-04-22 21:58 54.12794 126.04680 40046 ft 474 kts 191°
2026-04-22 21:58 54.06357 126.02173 40045 ft 474 kts 191°
2026-04-22 21:59 53.99959 125.99703 40044 ft 475 kts 191°
2026-04-22 21:59 53.93526 125.97213 40045 ft 474 kts 191°
2026-04-22 22:00 53.87109 125.94604 40032 ft 475 kts 196°
2026-04-22 22:00 53.81130 125.89825 40039 ft 478 kts 212°
2026-04-22 22:01 53.75805 125.83050 40033 ft 480 kts 217°
2026-04-22 22:01 53.70514 125.76174 40036 ft 480 kts 215°
2026-04-22 22:02 53.65116 125.69568 40037 ft 480 kts 214°
2026-04-22 22:02 53.59672 125.63080 40033 ft 480 kts 214°
2026-04-22 22:03 53.54240 125.56646 40035 ft 480 kts 213°
2026-04-22 22:03 53.48768 125.50176 40038 ft 480 kts 214°
2026-04-22 22:04 53.43300 125.43730 40038 ft 480 kts 213°
2026-04-22 22:04 53.37851 125.37337 40035 ft 480 kts 214°
2026-04-22 22:05 53.32372 125.30922 40032 ft 481 kts 214°
2026-04-22 22:05 53.26893 125.24524 40037 ft 480 kts 214°
2026-04-22 22:06 53.21410 125.18139 40035 ft 481 kts 214°
2026-04-22 22:06 53.15908 125.11757 40032 ft 481 kts 213°
2026-04-22 22:07 53.10403 125.05446 40036 ft 481 kts 214°
2026-04-22 22:07 53.04893 124.99120 40036 ft 481 kts 214°
2026-04-22 22:08 52.99419 124.92841 40032 ft 481 kts 214°
2026-04-22 22:08 52.93915 124.86534 40034 ft 481 kts 214°
2026-04-22 22:09 52.88400 124.80233 40037 ft 482 kts 214°
2026-04-22 22:09 52.82883 124.73941 40036 ft 481 kts 214°
2026-04-22 22:10 52.77363 124.67666 40036 ft 481 kts 214°
2026-04-22 22:10 52.71828 124.61407 40035 ft 481 kts 214°
2026-04-22 22:11 52.66334 124.55213 40035 ft 482 kts 214°
2026-04-22 22:11 52.60791 124.48980 40037 ft 481 kts 214°
2026-04-22 22:12 52.55256 124.42774 40033 ft 482 kts 214°
2026-04-22 22:12 52.49713 124.36579 40023 ft 481 kts 214°
2026-04-22 22:13 52.44159 124.30430 40009 ft 482 kts 214°
2026-04-22 22:13 52.38590 124.24295 40009 ft 482 kts 214°
2026-04-22 22:14 52.33064 124.18191 40009 ft 482 kts 214°
2026-04-22 22:14 52.27513 124.12063 40007 ft 482 kts 214°
2026-04-22 22:15 52.21943 124.05932 40008 ft 482 kts 214°
2026-04-22 22:15 52.16379 123.99827 40009 ft 482 kts 214°
2026-04-22 22:16 52.10815 123.93741 40008 ft 482 kts 214°
2026-04-22 22:16 52.05252 123.87674 40008 ft 482 kts 214°
2026-04-22 22:17 51.99682 123.81619 40008 ft 482 kts 214°
2026-04-22 22:17 51.94146 123.75620 40008 ft 482 kts 214°
2026-04-22 22:18 51.88574 123.69600 40008 ft 481 kts 214°
2026-04-22 22:18 51.82988 123.63583 40008 ft 481 kts 214°
2026-04-22 22:19 51.77399 123.57594 40009 ft 481 kts 214°
2026-04-22 22:19 51.71805 123.51660 40008 ft 481 kts 214°
2026-04-22 22:20 51.66209 123.45713 40007 ft 481 kts 214°
2026-04-22 22:20 51.60623 123.39773 40008 ft 481 kts 214°
2026-04-22 22:21 51.55070 123.33878 40008 ft 481 kts 214°
2026-04-22 22:21 51.49484 123.27967 40009 ft 481 kts 214°
2026-04-22 22:22 51.43895 123.22073 40009 ft 481 kts 214°
2026-04-22 22:22 51.38300 123.16189 40008 ft 481 kts 214°
2026-04-22 22:23 51.32701 123.10318 40007 ft 480 kts 214°
2026-04-22 22:23 51.27105 123.04468 40009 ft 480 kts 214°
2026-04-22 22:24 51.21509 122.98637 40009 ft 480 kts 214°
2026-04-22 22:24 51.15945 122.92854 40007 ft 480 kts 214°
2026-04-22 22:25 51.10344 122.87051 40002 ft 480 kts 214°
2026-04-22 22:25 51.04714 122.81277 39998 ft 480 kts 214°
2026-04-22 22:26 50.99093 122.75526 39998 ft 480 kts 214°
2026-04-22 22:26 50.93478 122.69773 39997 ft 480 kts 214°
2026-04-22 22:27 50.87864 122.64021 39999 ft 480 kts 215°
2026-04-22 22:27 50.82282 122.58317 39999 ft 480 kts 215°
2026-04-22 22:28 50.76653 122.52587 39998 ft 480 kts 215°
2026-04-22 22:28 50.71032 122.46882 39998 ft 480 kts 215°
2026-04-22 22:29 50.65405 122.41184 39999 ft 481 kts 215°
2026-04-22 22:29 50.59767 122.35494 39999 ft 480 kts 215°
2026-04-22 22:30 50.54134 122.29827 39998 ft 481 kts 215°
2026-04-22 22:30 50.48526 122.24199 39992 ft 481 kts 215°
2026-04-22 22:31 50.42883 122.18554 39992 ft 481 kts 215°
2026-04-22 22:31 50.37228 122.12928 39989 ft 481 kts 214°
2026-04-22 22:32 50.31559 122.07339 39990 ft 481 kts 215°
2026-04-22 22:32 50.25891 122.01735 39990 ft 482 kts 215°
2026-04-22 22:33 50.20227 121.96130 39987 ft 482 kts 215°
2026-04-22 22:33 50.14567 121.90546 39988 ft 482 kts 215°
2026-04-22 22:34 50.08897 121.84969 39991 ft 481 kts 215°
2026-04-22 22:34 50.03265 121.79446 39987 ft 482 kts 215°
2026-04-22 22:35 49.97585 121.73889 39990 ft 481 kts 215°
2026-04-22 22:35 49.91909 121.68354 39990 ft 481 kts 215°
2026-04-22 22:36 49.86233 121.62836 39987 ft 481 kts 215°
2026-04-22 22:36 49.80558 121.57335 39979 ft 481 kts 215°
2026-04-22 22:37 49.74916 121.51882 39977 ft 480 kts 215°
2026-04-22 22:37 49.70198 121.47330 39978 ft 480 kts 215°
2026-04-22 22:38 49.64510 121.41894 39978 ft 480 kts 215°
2026-04-22 22:38 49.58830 121.36481 39983 ft 479 kts 215°
2026-04-22 22:39 49.53152 121.31057 39983 ft 479 kts 215°
2026-04-22 22:39 49.47493 121.25656 39980 ft 479 kts 216°
2026-04-22 22:40 49.41860 121.20298 39979 ft 478 kts 216°
2026-04-22 22:40 49.36192 121.14919 39979 ft 478 kts 216°
2026-04-22 22:41 49.30535 121.09563 39978 ft 478 kts 216°
2026-04-22 22:41 49.24871 121.04217 39979 ft 477 kts 216°
2026-04-22 22:42 49.19213 120.98895 39981 ft 477 kts 216°
2026-04-22 22:42 49.13557 120.93588 39981 ft 477 kts 216°
2026-04-22 22:43 49.07903 120.88293 39984 ft 477 kts 216°
2026-04-22 22:43 49.02281 120.83044 39982 ft 477 kts 216°
2026-04-22 22:44 48.96624 120.77786 39980 ft 477 kts 216°
2026-04-22 22:44 48.90949 120.72564 39980 ft 476 kts 216°
2026-04-22 22:45 48.85288 120.67343 39982 ft 475 kts 216°
2026-04-22 22:45 48.79637 120.62126 39980 ft 475 kts 216°
2026-04-22 22:46 48.73990 120.56924 39984 ft 475 kts 216°
2026-04-22 22:46 48.68340 120.51735 39981 ft 474 kts 216°
2026-04-22 22:47 48.62734 120.46600 39979 ft 474 kts 216°
2026-04-22 22:47 48.57100 120.41455 39967 ft 472 kts 216°
2026-04-22 22:48 48.51473 120.36331 39976 ft 472 kts 216°
2026-04-22 22:48 48.45848 120.31220 39970 ft 471 kts 216°
2026-04-22 22:49 48.40232 120.26123 39980 ft 470 kts 216°
2026-04-22 22:49 48.34319 120.21778 39983 ft 479 kts 203°
2026-04-22 22:50 48.27839 120.19171 39964 ft 484 kts 199°
2026-04-22 22:50 48.21308 120.16885 39964 ft 483 kts 199°
2026-04-22 22:51 48.14782 120.14464 39965 ft 482 kts 200°
2026-04-22 22:51 48.08282 120.11964 39970 ft 481 kts 200°
2026-04-22 22:52 48.01841 120.09469 39977 ft 482 kts 200°
2026-04-22 22:52 47.95347 120.06961 39979 ft 482 kts 200°
2026-04-22 22:53 47.88849 120.04463 39981 ft 481 kts 200°
2026-04-22 22:53 47.82361 120.01973 39981 ft 482 kts 200°
2026-04-22 22:54 47.75864 119.99488 39984 ft 482 kts 200°
2026-04-22 22:54 47.69376 119.97011 39980 ft 482 kts 200°
2026-04-22 22:55 47.62881 119.94541 39982 ft 481 kts 200°
2026-04-22 22:55 47.53185 119.90871 39981 ft 482 kts 200°
2026-04-22 22:56 47.46683 119.88426 39978 ft 482 kts 200°
2026-04-22 22:56 47.40181 119.85984 39981 ft 482 kts 199°
2026-04-22 22:57 47.33683 119.83549 39980 ft 481 kts 200°
2026-04-22 22:57 47.27187 119.81112 39985 ft 482 kts 200°
2026-04-22 22:58 47.20684 119.78676 39987 ft 482 kts 200°
2026-04-22 22:58 47.14173 119.76245 39989 ft 482 kts 200°
2026-04-22 22:59 47.07700 119.73836 39986 ft 482 kts 199°
2026-04-22 22:59 47.01187 119.71418 39989 ft 482 kts 200°
2026-04-22 23:00 46.94676 119.69005 39985 ft 482 kts 200°
2026-04-22 23:00 46.88167 119.66599 39990 ft 483 kts 199°
2026-04-22 23:01 46.81654 119.64200 39986 ft 483 kts 199°
2026-04-22 23:01 46.75186 119.61823 39980 ft 483 kts 199°
2026-04-22 23:02 46.68670 119.59451 39981 ft 483 kts 199°
2026-04-22 23:02 46.62156 119.57080 39980 ft 483 kts 199°
2026-04-22 23:03 46.55628 119.54698 39978 ft 482 kts 199°
2026-04-22 23:03 46.49120 119.52327 39987 ft 482 kts 199°
2026-04-22 23:04 46.42608 119.49964 39987 ft 482 kts 199°
2026-04-22 23:04 46.36137 119.47622 39988 ft 482 kts 199°
2026-04-22 23:05 46.29625 119.45270 39989 ft 482 kts 199°
2026-04-22 23:05 46.23112 119.42924 39989 ft 482 kts 199°
2026-04-22 23:06 46.16606 119.40584 39991 ft 482 kts 199°
2026-04-22 23:06 46.10094 119.38249 39988 ft 482 kts 199°
2026-04-22 23:07 46.03581 119.35917 39987 ft 482 kts 199°
2026-04-22 23:07 45.97071 119.33595 39989 ft 481 kts 199°
2026-04-22 23:08 45.90577 119.31292 39989 ft 481 kts 199°
2026-04-22 23:08 45.84108 119.29008 39990 ft 481 kts 199°
2026-04-22 23:09 45.77604 119.26708 39989 ft 481 kts 199°
2026-04-22 23:09 45.71105 119.24410 39990 ft 481 kts 199°
2026-04-22 23:10 45.64596 119.22116 39991 ft 481 kts 199°
2026-04-22 23:10 45.58100 119.19832 39991 ft 481 kts 199°
2026-04-22 23:11 45.51602 119.17555 39989 ft 480 kts 199°
2026-04-22 23:11 45.45145 119.15294 39993 ft 480 kts 199°
2026-04-22 23:12 45.38652 119.13024 39987 ft 480 kts 199°
2026-04-22 23:12 45.32161 119.10762 39987 ft 480 kts 199°
2026-04-22 23:13 45.25669 119.08505 39992 ft 480 kts 199°
2026-04-22 23:13 45.19224 119.06271 39987 ft 479 kts 199°
2026-04-22 23:14 45.12741 119.04029 39991 ft 479 kts 199°
2026-04-22 23:14 45.06259 119.01808 39991 ft 479 kts 199°
2026-04-22 23:15 44.99772 118.99583 39986 ft 479 kts 199°
2026-04-22 23:15 44.93414 118.96945 39990 ft 473 kts 206°
2026-04-22 23:16 44.87335 118.93432 39990 ft 471 kts 209°
2026-04-22 23:16 44.81357 118.89821 39991 ft 470 kts 208°
2026-04-22 23:17 44.75314 118.86248 39989 ft 470 kts 208°
2026-04-22 23:17 44.69261 118.82725 39988 ft 471 kts 208°
2026-04-22 23:18 44.63206 118.79218 39993 ft 470 kts 208°
2026-04-22 23:18 44.57154 118.75719 39992 ft 470 kts 208°
2026-04-22 23:19 44.51132 118.72244 39989 ft 470 kts 208°
2026-04-22 23:19 44.45066 118.68749 39987 ft 470 kts 208°
2026-04-22 23:20 44.39002 118.65267 39992 ft 470 kts 208°
2026-04-22 23:20 44.32947 118.61798 39986 ft 470 kts 208°
2026-04-22 23:21 44.26899 118.58337 39988 ft 469 kts 207°
2026-04-22 23:21 44.20854 118.54892 39987 ft 469 kts 207°
2026-04-22 23:22 44.14787 118.51454 39993 ft 470 kts 207°
2026-04-22 23:22 44.08776 118.48050 39990 ft 470 kts 207°
2026-04-22 23:23 44.02723 118.44626 39995 ft 470 kts 207°
2026-04-22 23:23 43.96662 118.41202 39997 ft 469 kts 207°
2026-04-22 23:24 43.90616 118.37788 40001 ft 469 kts 207°
2026-04-22 23:24 43.84562 118.34379 39998 ft 469 kts 207°
2026-04-22 23:25 43.79534 118.31554 40000 ft 469 kts 207°
2026-04-22 23:25 43.72496 118.27607 39997 ft 468 kts 207°
2026-04-22 23:26 43.67470 118.24797 39999 ft 468 kts 207°
2026-04-22 23:26 43.61441 118.21429 39999 ft 467 kts 207°
2026-04-22 23:27 43.55409 118.18068 39998 ft 467 kts 207°
2026-04-22 23:27 43.49384 118.14717 40000 ft 466 kts 207°
2026-04-22 23:28 43.43363 118.11378 39999 ft 466 kts 207°
2026-04-22 23:28 43.37348 118.08068 39998 ft 466 kts 207°
2026-04-22 23:29 43.31333 118.04760 40000 ft 465 kts 207°
2026-04-22 23:29 43.25322 118.01450 40002 ft 465 kts 207°
2026-04-22 23:30 43.19358 117.98169 40000 ft 465 kts 207°
2026-04-22 23:30 43.13346 117.94866 40001 ft 465 kts 207°
2026-04-22 23:31 43.07337 117.91577 39996 ft 465 kts 207°
2026-04-22 23:31 43.01333 117.88297 39996 ft 464 kts 207°
2026-04-22 23:32 42.95329 117.85022 39999 ft 464 kts 207°
2026-04-22 23:32 42.89336 117.81759 40001 ft 463 kts 207°
2026-04-22 23:33 42.83339 117.78501 40001 ft 463 kts 207°
2026-04-22 23:33 42.77388 117.75278 40001 ft 462 kts 207°
2026-04-22 23:34 42.71401 117.72042 40002 ft 462 kts 207°
2026-04-22 23:34 42.65422 117.68815 40000 ft 462 kts 207°
2026-04-22 23:35 42.59448 117.65615 39999 ft 461 kts 207°
2026-04-22 23:35 42.53506 117.62435 40000 ft 461 kts 207°
2026-04-22 23:36 42.47541 117.59241 39996 ft 460 kts 207°
2026-04-22 23:36 42.41590 117.56056 40002 ft 459 kts 207°
2026-04-22 23:37 42.35644 117.52878 40000 ft 458 kts 207°
2026-04-22 23:37 42.29708 117.49714 39995 ft 458 kts 207°
2026-04-22 23:38 42.23813 117.46577 40001 ft 458 kts 207°
2026-04-22 23:38 42.17881 117.43425 40000 ft 457 kts 207°
2026-04-22 23:39 42.11951 117.40284 39998 ft 457 kts 207°
2026-04-22 23:39 42.06035 117.37157 39997 ft 457 kts 207°
2026-04-22 23:40 42.00110 117.34030 40000 ft 457 kts 207°
2026-04-22 23:40 41.94161 117.31006 39989 ft 458 kts 203°
2026-04-22 23:41 41.87834 117.29703 39987 ft 472 kts 185°
2026-04-22 23:41 41.81427 117.28684 39991 ft 457 kts 204°
2026-04-22 23:42 41.75582 117.25502 39995 ft 453 kts 208°
2026-04-22 23:42 41.69894 117.22536 39992 ft 456 kts 205°
2026-04-22 23:43 41.63833 117.19924 39988 ft 458 kts 202°
2026-04-22 23:43 41.57720 117.17505 39989 ft 458 kts 202°
2026-04-22 23:44 41.51602 117.15109 39721 ft 461 kts 202°
2026-04-22 23:44 41.48539 117.13906 39170 ft 457 kts 202°
2026-04-22 23:44 41.45484 117.12704 38668 ft 457 kts 202°
2026-04-22 23:45 41.42436 117.11505 38177 ft 457 kts 202°
2026-04-22 23:45 41.39384 117.10303 37695 ft 456 kts 202°
2026-04-22 23:45 41.36336 117.09104 37217 ft 456 kts 201°
2026-04-22 23:45 41.33329 117.07923 36749 ft 456 kts 201°
2026-04-22 23:46 41.30285 117.06730 36272 ft 456 kts 201°
2026-04-22 23:46 41.27238 117.05534 35758 ft 458 kts 201°
2026-04-22 23:46 41.24165 117.04328 35201 ft 461 kts 201°
2026-04-22 23:46 41.21063 117.03113 34641 ft 465 kts 201°
2026-04-22 23:47 41.17949 117.01894 34076 ft 467 kts 200°
2026-04-22 23:47 41.14827 117.00675 33511 ft 468 kts 200°
2026-04-22 23:47 41.11697 116.99454 32944 ft 470 kts 200°
2026-04-22 23:47 41.08554 116.98232 32380 ft 471 kts 200°
2026-04-22 23:48 41.05398 116.97010 31810 ft 473 kts 200°
2026-04-22 23:48 41.02237 116.95788 31213 ft 475 kts 200°
2026-04-22 23:48 40.99095 116.94573 30569 ft 477 kts 200°
2026-04-22 23:48 40.95920 116.93343 29880 ft 475 kts 200°
2026-04-22 23:49 40.92756 116.92121 29201 ft 471 kts 200°
2026-04-22 23:49 40.89624 116.90910 28523 ft 467 kts 200°
2026-04-22 23:49 40.86518 116.89707 27864 ft 464 kts 200°
2026-04-22 23:49 40.83429 116.88513 27202 ft 460 kts 200°
2026-04-22 23:50 40.80361 116.87328 26544 ft 457 kts 199°
2026-04-22 23:50 40.77314 116.86153 25883 ft 453 kts 199°
2026-04-22 23:50 40.74291 116.84987 25240 ft 450 kts 199°
2026-04-22 23:50 40.71304 116.83837 24599 ft 446 kts 199°
2026-04-22 23:51 40.68330 116.82693 23964 ft 443 kts 199°
2026-04-22 23:51 40.65379 116.81559 23332 ft 439 kts 199°
2026-04-22 23:51 40.62492 116.80450 22709 ft 435 kts 199°
2026-04-22 23:51 40.59599 116.79340 22089 ft 432 kts 199°
2026-04-22 23:52 40.56727 116.78239 21469 ft 427 kts 199°
2026-04-22 23:52 40.53885 116.77150 20867 ft 423 kts 199°
2026-04-22 23:52 40.51072 116.76074 20262 ft 420 kts 199°
2026-04-22 23:52 40.48269 116.75003 19656 ft 416 kts 199°
2026-04-22 23:53 40.45493 116.73943 19057 ft 413 kts 199°
2026-04-22 23:53 40.42781 116.72907 18481 ft 409 kts 199°
2026-04-22 23:53 40.40056 116.71867 17895 ft 406 kts 199°
2026-04-22 23:53 40.37351 116.70837 17314 ft 402 kts 199°
2026-04-22 23:54 40.34671 116.69819 16743 ft 399 kts 199°
2026-04-22 23:54 40.32021 116.68813 16168 ft 395 kts 199°
2026-04-22 23:54 40.29388 116.67812 15607 ft 392 kts 199°
2026-04-22 23:54 40.26781 116.66827 15053 ft 389 kts 199°
2026-04-22 23:55 40.24197 116.65854 14477 ft 385 kts 199°
2026-04-22 23:55 40.21630 116.64883 13917 ft 382 kts 199°
2026-04-22 23:55 40.19116 116.63931 13366 ft 379 kts 199°
2026-04-22 23:55 40.16594 116.62978 12821 ft 376 kts 199°
2026-04-22 23:56 40.14092 116.62030 12274 ft 373 kts 199°
2026-04-22 23:56 40.11607 116.61090 11714 ft 370 kts 199°
2026-04-22 23:56 40.09144 116.60159 11271 ft 366 kts 199°
2026-04-22 23:56 40.06714 116.59242 11002 ft 362 kts 199°
2026-04-22 23:57 40.04377 116.58366 10897 ft 337 kts 199°
2026-04-22 23:57 40.02194 116.57551 10783 ft 314 kts 199°
2026-04-22 23:57 40.00158 116.56788 10661 ft 295 kts 199°
2026-04-22 23:57 39.98229 116.56063 10557 ft 284 kts 199°
2026-04-22 23:58 39.96340 116.55348 10446 ft 282 kts 199°
2026-04-22 23:58 39.94484 116.54647 10132 ft 281 kts 198°
2026-04-22 23:58 39.92587 116.53931 9649 ft 278 kts 198°
2026-04-22 23:58 39.90748 116.53237 9158 ft 273 kts 198°
2026-04-22 23:59 39.88960 116.52561 8698 ft 269 kts 198°
2026-04-22 23:59 39.87173 116.51889 8264 ft 265 kts 198°
2026-04-22 23:59 39.85419 116.51233 7999 ft 258 kts 197°
2026-04-22 23:59 39.83745 116.50607 7884 ft 242 kts 197°
2026-04-23 00:00 39.80873 116.48731 7215 ft 231 kts 229°
2026-04-23 00:00 39.80318 116.47558 6946 ft 232 kts 247°
2026-04-23 00:00 39.79858 116.44804 6399 ft 234 kts 259°
2026-04-23 00:01 39.79642 116.42711 5986 ft 233 kts 259°
2026-04-23 00:01 39.79169 116.40712 5579 ft 229 kts 239°
2026-04-23 00:01 39.78108 116.39240 5222 ft 228 kts 211°
2026-04-23 00:01 39.76575 116.38715 4860 ft 228 kts 181°
2026-04-23 00:02 39.75002 116.38820 4509 ft 230 kts 176°
2026-04-23 00:02 39.73440 116.38982 4139 ft 220 kts 175°
2026-04-23 00:02 39.71951 116.39208 3787 ft 210 kts 173°
2026-04-23 00:02 39.70549 116.39441 3476 ft 195 kts 173°
2026-04-23 00:03 39.69244 116.39653 3173 ft 183 kts 172°
2026-04-23 00:03 39.68015 116.39850 2892 ft 173 kts 172°
2026-04-23 00:03 39.66843 116.40036 2636 ft 168 kts 172°
2026-04-23 00:03 39.65684 116.40220 2402 ft 168 kts 172°
2026-04-23 00:04 39.64528 116.40403 2155 ft 167 kts 172°
2026-04-23 00:04 39.63375 116.40584 1989 ft 165 kts 173°
2026-04-23 00:04 39.62224 116.40767 1995 ft 167 kts 172°
2026-04-23 00:04 39.61069 116.40950 1984 ft 167 kts 172°
2026-04-23 00:05 39.59915 116.41133 1992 ft 167 kts 172°
2026-04-23 00:05 39.58756 116.41314 1817 ft 166 kts 173°
2026-04-23 00:05 39.57649 116.41486 1549 ft 155 kts 172°
2026-04-23 00:05 39.56633 116.41650 1354 ft 145 kts 173°
2026-04-23 00:06 39.55633 116.41807 1185 ft 145 kts 173°
2026-04-23 00:06 39.54636 116.41955 997 ft 144 kts 172°
2026-04-23 00:06 39.53645 116.42119 769 ft 143 kts 172°
2026-04-23 00:06 39.52660 116.42287 588 ft 142 kts 172°
2026-04-23 00:07 39.51675 116.42431 414 ft 142 kts 174°
2026-04-23 00:07 39.50694 116.42591 212 ft 141 kts 173°
2026-04-23 00:07 39.49731 116.42730 107 ft 130 kts 172°
2026-04-23 00:07 39.49033 116.42842 104 ft 72 kts 173°
2026-04-23 00:08 39.48645 116.42903 102 ft 53 kts 173°
2026-04-23 00:08 39.48338 116.42952 107 ft 31 kts 173°
2026-04-23 00:08 39.48208 116.42952 105 ft 16 kts 192°
2026-04-23 00:08 39.48107 116.42916 103 ft 16 kts 198°
2026-04-23 00:09 39.48010 116.42852 98 ft 8 kts 239°
2026-04-23 00:09 39.48013 116.42807 95 ft 11 kts 292°
2026-04-23 00:09 39.48117 116.42763 95 ft 18 kts 355°
2026-04-23 00:09 39.48253 116.42742 97 ft 22 kts 353°
2026-04-23 00:10 39.48414 116.42717 96 ft 24 kts 353°
2026-04-23 00:10 39.48578 116.42693 94 ft 24 kts 353°
2026-04-23 00:10 39.48741 116.42667 94 ft 24 kts 353°
2026-04-23 00:10 39.48907 116.42640 94 ft 25 kts 353°
2026-04-23 00:11 39.49077 116.42614 94 ft 24 kts 353°
2026-04-23 00:11 39.49229 116.42589 94 ft 14 kts 352°
2026-04-23 00:11 39.49328 116.42572 94 ft 14 kts 352°
2026-04-23 00:11 39.49404 116.42545 96 ft 21 kts 336°
2026-04-23 00:12 39.49524 116.42448 95 ft 19 kts 328°
2026-04-23 00:12 39.49597 116.42332 94 ft 15 kts 311°
2026-04-23 00:12 39.49709 116.42285 92 ft 19 kts 352°
2026-04-23 00:12 39.49844 116.42263 92 ft 20 kts 353°
2026-04-23 00:13 39.50025 116.42234 92 ft 20 kts 353°
2026-04-23 00:13 39.50118 116.42220 94 ft 20 kts 353°
2026-04-23 00:13 39.50255 116.42198 95 ft 20 kts 353°
2026-04-23 00:13 39.50394 116.42174 92 ft 20 kts 353°
2026-04-23 00:14 39.50534 116.42157 92 ft 20 kts 354°
2026-04-23 00:14 39.50673 116.42137 94 ft 20 kts 351°
2026-04-23 00:14 39.50789 116.42104 92 ft 13 kts 330°
2026-04-23 00:14 39.50807 116.41991 94 ft 16 kts 251°
2026-04-23 00:15 39.50745 116.41910 92 ft 4 kts 237°
2026-04-23 00:15 39.50738 116.41879 92 ft 4 kts 261°
2026-04-23 00:15 39.50741 116.41840 92 ft 4 kts 280°
2026-04-23 00:15 39.50748 116.41812 96 ft 1 kts 289°
2026-04-23 00:16 39.50751 116.41800 96 ft 0 kts 290°